TimeCDT,TemperatureF,Dew PointF,Humidity,Sea Level PressureIn,VisibilityMPH,Wind Direction,Wind SpeedMPH,Gust SpeedMPH,PrecipitationIn,Events,Conditions,WindDirDegrees,DateUTC
12:54 AM,50.0,45.0,83,29.96,10.0,East,5.8,-,N/A,,Overcast,80,2012-10-22 05:54:00
1:54 AM,50.0,46.0,86,29.96,8.0,East,5.8,-,N/A,,Overcast,90,2012-10-22 06:54:00
2:54 AM,50.0,46.0,86,29.96,7.0,East,5.8,-,N/A,,Overcast,90,2012-10-22 07:54:00
3:54 AM,48.9,46.0,90,29.94,7.0,ENE,5.8,-,N/A,,Overcast,70,2012-10-22 08:54:00
4:54 AM,50.0,46.0,86,29.94,7.0,East,3.5,-,N/A,,Overcast,100,2012-10-22 09:54:00
5:54 AM,46.9,45.0,93,29.94,5.0,East,5.8,-,N/A,,Partly Cloudy,80,2012-10-22 10:54:00
6:54 AM,46.0,44.1,93,29.96,4.0,East,4.6,-,N/A,,Clear,80,2012-10-22 11:54:00
7:54 AM,48.9,46.0,90,29.96,4.0,East,5.8,-,N/A,,Overcast,90,2012-10-22 12:54:00
8:54 AM,50.0,46.9,89,29.98,5.0,ENE,5.8,-,N/A,,Overcast,60,2012-10-22 13:54:00
9:54 AM,54.0,48.0,80,29.96,7.0,ENE,9.2,-,N/A,,Partly Cloudy,70,2012-10-22 14:54:00
10:54 AM,55.9,48.0,75,29.98,8.0,East,9.2,-,N/A,,Overcast,80,2012-10-22 15:54:00
11:54 AM,57.0,48.0,72,29.95,9.0,ENE,11.5,-,N/A,,Overcast,70,2012-10-22 16:54:00
12:54 PM,59.0,48.0,67,29.95,10.0,East,11.5,-,N/A,,Overcast,90,2012-10-22 17:54:00
1:44 PM,59.0,48.2,67,29.93,10.0,East,8.1,-,N/A,,Overcast,90,2012-10-22 18:44:00
1:54 PM,59.0,48.0,67,29.94,10.0,East,8.1,-,N/A,,Overcast,100,2012-10-22 18:54:00
2:54 PM,60.1,48.0,64,29.93,10.0,East,12.7,-,N/A,,Overcast,80,2012-10-22 19:54:00
3:54 PM,60.1,48.0,64,29.92,10.0,ENE,12.7,21.9,N/A,,Overcast,70,2012-10-22 20:54:00
4:54 PM,60.1,48.9,67,29.94,10.0,ENE,8.1,-,N/A,,Overcast,70,2012-10-22 21:54:00
5:54 PM,59.0,48.0,67,29.94,10.0,East,11.5,-,N/A,,Overcast,90,2012-10-22 22:54:00
6:54 PM,57.0,48.0,72,29.97,10.0,ENE,9.2,-,N/A,,Overcast,70,2012-10-22 23:54:00
7:54 PM,55.9,48.0,75,29.96,10.0,East,10.4,-,N/A,,Overcast,80,2012-10-23 00:54:00
8:54 PM,55.0,48.0,77,29.96,10.0,East,11.5,-,N/A,,Overcast,90,2012-10-23 01:54:00
9:54 PM,54.0,48.0,80,29.97,10.0,ESE,5.8,-,N/A,,Overcast,110,2012-10-23 02:54:00
10:29 PM,53.6,48.2,82,29.95,10.0,ESE,6.9,-,N/A,,Overcast,110,2012-10-23 03:29:00
10:54 PM,54.0,48.9,83,29.95,10.0,East,6.9,-,N/A,,Overcast,100,2012-10-23 03:54:00
11:22 PM,53.6,50.0,88,29.96,6.0,ESE,8.1,-,N/A,,Overcast,120,2012-10-23 04:22:00
11:49 PM,51.8,51.8,100,29.95,2.0,East,8.1,-,N/A,,Overcast,100,2012-10-23 04:49:00